New River MCAS, NC

2:41 AM EDT on March 24, 2017 (GMT -0400)
New River Marine Corps Air Station

Weather History for KNCA - May, 2015

Change the Weather History Date:

Friday, May 8, 2015

  Actual Average Record
Temperature  
Mean Temperature 72 °F -  
Max Temperature 80 °F 77 °F 91 °F (2014)
Min Temperature 64 °F 55 °F 46 °F (1997)
Cooling Degree Days 7    
Growing Degree Days 22 (Base 50)    
Moisture  
Dew Point 64 °F    
Average Humidity 82    
Maximum Humidity 93    
Minimum Humidity 54    
Precipitation  
Precipitation 0.05 in - - ()
Sea Level Pressure  
Sea Level Pressure 30.02 in    
Wind  
Wind Speed 13 mph (NE)    
Max Wind Speed 16 mph    
Max Gust Speed 20 mph    
Visibility 9 miles    
Events Rain    
Averages and records for this station are not official NWS values.
T = Trace of Precipitation, MM = Missing Value Source: NWS Daily Summary

Daily Weather History Graph

Daily Weather History Graph

Search for Another Location

Airport or City:

Trip Planner

Search our weather history database for the weather conditions in past years. The results will help you decide how hot, cold, wet, or windy it might be!

Date:

Astronomy

May. 08, 2015 Rise Set
Actual Time 6:12 AM EDT 8:00 PM EDT
Civil Twilight 5:45 AM EDT 8:27 PM EDT
Nautical Twilight 5:12 AM EDT 9:00 PM EDT
Astronomical Twilight 4:37 AM EDT 9:36 PM EDT
Moon No Moon Rise 9:59 AM EDT (5/8)
Length of Visible Light 14h 42m
Length of Day
13h 47m
Waning Gibbous, 79% of the Moon is Illuminated
May 8
Waning Gibbous
May 11
Last Quarter
May 18
New
May 25
First Quarter
Jun 2
Full

Hourly Weather History & Observations

Time (EDT) Temp. Heat Index Dew Point Humidity Pressure Visibility Wind Dir Wind Speed Gust Speed Precip Events Conditions
12:56 AM 66.9 °F - 61.0 °F 81% 30.02 in 10.0 mi NNE 13.8 mph - N/A   Overcast
1:56 AM 66.0 °F - 62.1 °F 87% 30.00 in 6.0 mi NE 13.8 mph - 0.00 in Rain Light Rain
2:56 AM 64.9 °F - 61.0 °F 87% 29.99 in 10.0 mi NNE 15.0 mph - 0.00 in   Partly Cloudy
3:15 AM 64.9 °F - 61.0 °F 87% 29.99 in 10.0 mi NNE 11.5 mph - N/A   Mostly Cloudy
3:56 AM 64.9 °F - 62.1 °F 90% 30.00 in 10.0 mi NNE 10.4 mph - 0.00 in   Overcast
4:26 AM 64.9 °F - 62.1 °F 90% 29.99 in 10.0 mi NNE 10.4 mph - N/A   Overcast
5:29 AM 64.9 °F - 62.1 °F 90% 29.99 in 10.0 mi NNE 10.4 mph - N/A   Overcast
5:56 AM 64.9 °F - 63.0 °F 93% 30.01 in 10.0 mi NNE 10.4 mph - N/A   Overcast
6:19 AM 64.9 °F - 63.0 °F 93% 30.00 in 10.0 mi NNE 11.5 mph - N/A   Overcast
6:56 AM 66.0 °F - 63.0 °F 90% 30.02 in 5.0 mi NNE 16.1 mph - 0.01 in Rain Light Rain
7:12 AM 66.0 °F - 64.0 °F 93% 30.01 in 4.0 mi NNE 11.5 mph - 0.00 in Rain Light Rain
7:28 AM 66.0 °F - 64.0 °F 93% 30.02 in 10.0 mi NNE 11.5 mph - 0.00 in   Overcast
7:56 AM 68.0 °F - 64.9 °F 90% 30.04 in 10.0 mi NNE 12.7 mph - 0.00 in   Overcast
8:56 AM 68.0 °F - 64.9 °F 90% 30.04 in 10.0 mi NNE 12.7 mph - N/A   Overcast
9:56 AM 72.0 °F - 66.0 °F 81% 30.04 in 10.0 mi NE 16.1 mph - N/A   Overcast
10:07 AM 72.0 °F - 66.0 °F 81% 30.03 in 10.0 mi NNE 15.0 mph - N/A   Overcast
10:54 AM 75.2 °F - 66.2 °F 73% 30.03 in 10.0 mi NE 15.0 mph 19.6 mph N/A   Overcast
10:56 AM 75.0 °F - 66.0 °F 73% 30.04 in 10.0 mi NE 13.8 mph 19.6 mph N/A   Overcast
11:32 AM 73.0 °F - 66.9 °F 81% 30.04 in 5.0 mi NE 13.8 mph - 0.01 in Rain Light Rain
11:40 AM 72.0 °F - 68.0 °F 87% 30.04 in 3.0 mi NE 10.4 mph - 0.02 in Rain Light Rain
11:56 AM 72.0 °F - 68.0 °F 87% 30.04 in 6.0 mi NE 10.4 mph - 0.02 in Rain Light Rain
12:56 PM 71.1 °F - 66.0 °F 84% 30.05 in 10.0 mi NE 12.7 mph - 0.00 in   Overcast
1:56 PM 75.9 °F - 66.0 °F 71% 30.04 in 10.0 mi NNE 12.7 mph - N/A   Scattered Clouds
2:56 PM 78.1 °F - 66.9 °F 68% 30.02 in 10.0 mi ENE 8.1 mph - N/A   Scattered Clouds
3:56 PM 80.1 °F 81.2 °F 62.1 °F 54% 30.01 in 10.0 mi East 16.1 mph - N/A   Mostly Cloudy
4:56 PM 75.9 °F - 60.1 °F 58% 30.02 in 10.0 mi East 13.8 mph - 0.00 in Rain Light Rain
5:56 PM 77.0 °F - 64.0 °F 64% 30.02 in 10.0 mi ENE 16.1 mph - 0.00 in   Scattered Clouds
6:56 PM 77.0 °F - 64.9 °F 66% 30.02 in 10.0 mi East 15.0 mph - N/A   Overcast
7:56 PM 72.0 °F - 66.0 °F 81% 30.03 in 10.0 mi NE 11.5 mph - 0.02 in   Clear
8:56 PM 71.1 °F - 66.9 °F 87% 30.04 in 10.0 mi NE 10.4 mph - N/A   Partly Cloudy
9:56 PM 70.0 °F - 66.9 °F 90% 30.04 in 10.0 mi NE 10.4 mph - N/A   Partly Cloudy
10:56 PM 69.1 °F - 66.0 °F 90% 30.05 in 10.0 mi NE 8.1 mph - N/A   Clear
11:56 PM 70.0 °F - 66.9 °F 90% 30.07 in 10.0 mi NE 12.7 mph - N/A   Mostly Cloudy